Sulphur, LA

8:19 PM CDT on May 25, 2017 (GMT -0500)
Sulphur

Weather History for KUXL - May, 2013

Change the Weather History Date:

Friday, May 24, 2013

  Actual Average (KLCH) Record (KLCH)
Temperature  
Mean Temperature 80 °F -  
Max Temperature 89 °F 86 °F 95 °F (1911)
Min Temperature 71 °F 69 °F 52 °F (1913)
Cooling Degree Days 15    
Growing Degree Days 30 (Base 50)    
Moisture  
Dew Point 73 °F    
Average Humidity 81    
Maximum Humidity 99    
Minimum Humidity 54    
Precipitation  
Precipitation 0.00 in - - ()
Sea Level Pressure  
Sea Level Pressure 30.10 in    
Wind  
Wind Speed 3 mph (ESE)    
Max Wind Speed 15 mph    
Max Gust Speed 20 mph    
Visibility 7 miles    
Events Fog , Rain , Thunderstorm    
Averages and records for this station are not official NWS values.
T = Trace of Precipitation, MM = Missing Value Source: NWS Daily Summary

Daily Weather History Graph

Daily Weather History Graph

Search for Another Location

Airport or City:

Trip Planner

Search our weather history database for the weather conditions in past years. The results will help you decide how hot, cold, wet, or windy it might be!

Date:

Astronomy

May. 24, 2013 Rise Set
Actual Time 6:15 AM CDT 8:06 PM CDT
Civil Twilight 5:48 AM CDT 8:32 PM CDT
Nautical Twilight 5:16 AM CDT 9:05 PM CDT
Astronomical Twilight 4:41 AM CDT 9:39 PM CDT
Moon 7:50 PM CDT (5/24) 5:44 AM CDT (5/24)
Length of Visible Light 14h 44m
Length of Day
13h 50m
Full, 100% of the Moon is Illuminated
May 24
Full
May 24
Full
May 31
Last Quarter
Jun 8
New
Jun 16
First Quarter

Hourly Weather History & Observations

Time (CDT) Temp. Heat Index Dew Point Humidity Pressure Visibility Wind Dir Wind Speed Gust Speed Precip Events Conditions
12:15 AM 74.3 °F - 73.6 °F 98% 30.06 in 2.5 mi Calm Calm - N/A   Clear
12:35 AM 74.1 °F - 73.6 °F 98% 30.06 in 3.0 mi Calm Calm - N/A   Clear
12:55 AM 73.6 °F - 73.0 °F 98% 30.06 in 3.0 mi Calm Calm - N/A   Clear
1:15 AM 72.7 °F - 72.5 °F 99% 30.05 in 5.0 mi NW 3.5 mph - N/A   Clear
1:35 AM 72.5 °F - 72.1 °F 99% 30.04 in 1.5 mi Calm Calm - N/A   Mist
1:55 AM 73.6 °F - 73.2 °F 99% 30.05 in 7.0 mi Calm Calm - N/A   Clear
2:15 AM 72.9 °F - 72.5 °F 99% 30.05 in 2.5 mi Calm Calm - N/A   Clear
2:35 AM 72.5 °F - 72.0 °F 98% 30.04 in 0.5 mi Calm Calm - N/A Fog Fog
2:55 AM 72.5 °F - 72.3 °F 99% 30.04 in 1.8 mi Calm Calm - N/A   Mostly Cloudy
3:15 AM 72.3 °F - 72.0 °F 99% 30.04 in 0.5 mi Calm Calm - N/A Fog Fog
3:35 AM 71.8 °F - 71.6 °F 99% 30.04 in 0.5 mi Calm Calm - N/A Fog Fog
3:55 AM 71.6 °F - 71.4 °F 99% 30.05 in 0.8 mi Calm Calm - N/A   Mist
4:15 AM 72.0 °F - 71.8 °F 99% 30.05 in 1.5 mi Calm Calm - N/A   Scattered Clouds
4:35 AM 72.5 °F - 72.1 °F 99% 30.05 in 0.8 mi Calm Calm - N/A   Mostly Cloudy
4:55 AM 72.3 °F - 72.0 °F 99% 30.05 in 0.5 mi Calm Calm - N/A Fog Fog
5:15 AM 72.9 °F - 72.7 °F 99% 30.06 in 1.0 mi ENE 4.6 mph - N/A   Overcast
5:35 AM 75.0 °F - 74.7 °F 99% 30.07 in 3.0 mi Calm Calm - N/A   Overcast
5:55 AM 74.5 °F - 74.3 °F 99% 30.08 in 4.0 mi Calm Calm - N/A   Mostly Cloudy
6:15 AM 73.6 °F - 73.4 °F 99% 30.08 in 5.0 mi ENE 4.6 mph - N/A   Scattered Clouds
6:35 AM 73.6 °F - 73.4 °F 99% 30.09 in 0.2 mi ENE 3.5 mph - N/A Fog Fog
6:55 AM 73.8 °F - 73.6 °F 99% 30.10 in 0.2 mi ENE 3.5 mph - N/A Fog Fog
7:15 AM 74.3 °F - 73.9 °F 99% 30.10 in 1.0 mi ENE 4.6 mph - N/A   Overcast
7:35 AM 74.5 °F - 74.3 °F 99% 30.11 in 2.0 mi ENE 3.5 mph - N/A   Overcast
7:55 AM 75.2 °F - 75.0 °F 99% 30.11 in 1.5 mi East 4.6 mph - N/A   Overcast
8:15 AM 76.1 °F - 75.7 °F 99% 30.12 in 1.2 mi Calm Calm - N/A   Overcast
8:35 AM 77.2 °F - 76.8 °F 99% 30.12 in 3.0 mi East 3.5 mph - N/A   Mostly Cloudy
8:55 AM 78.8 °F - 77.4 °F 95% 30.13 in 7.0 mi ESE 4.6 mph - N/A   Scattered Clouds
9:15 AM 80.8 °F 87.6 °F 77.2 °F 89% 30.13 in 10.0 mi ESE 3.5 mph - N/A   Clear
9:35 AM 83.1 °F 91.0 °F 75.6 °F 78% 30.14 in 10.0 mi ESE 4.6 mph - N/A   Scattered Clouds
9:55 AM 82.9 °F 89.9 °F 74.7 °F 76% 30.14 in 10.0 mi East 5.8 mph - N/A   Clear
10:15 AM 83.8 °F 91.4 °F 74.8 °F 74% 30.14 in 10.0 mi ESE 4.6 mph - N/A   Clear
10:35 AM 83.7 °F 90.7 °F 74.3 °F 73% 30.14 in 10.0 mi SE 3.5 mph - N/A   Scattered Clouds
10:55 AM 85.5 °F 93.4 °F 74.1 °F 69% 30.15 in 10.0 mi Calm Calm - N/A   Mostly Cloudy
11:15 AM 85.8 °F 93.8 °F 74.1 °F 68% 30.15 in 10.0 mi ESE 5.8 mph - N/A   Mostly Cloudy
11:35 AM 86.4 °F 94.6 °F 74.1 °F 67% 30.15 in 10.0 mi SE 4.6 mph - N/A   Overcast
11:55 AM 86.4 °F 94.2 °F 73.8 °F 66% 30.15 in 10.0 mi ESE 4.6 mph - N/A   Mostly Cloudy
12:15 PM 88.0 °F 96.5 °F 73.9 °F 63% 30.15 in 10.0 mi ESE 4.6 mph - N/A   Mostly Cloudy
12:35 PM 88.0 °F 95.6 °F 73.2 °F 61% 30.15 in 10.0 mi ESE 4.6 mph - N/A   Mostly Cloudy
12:55 PM 87.3 °F 94.5 °F 73.0 °F 62% 30.14 in 10.0 mi ESE 4.6 mph - N/A   Mostly Cloudy
1:15 PM 89.8 °F 98.6 °F 73.6 °F 59% 30.14 in 10.0 mi ENE 5.8 mph - N/A   Mostly Cloudy
1:35 PM 89.4 °F 97.3 °F 72.9 °F 58% 30.14 in 10.0 mi ESE 9.2 mph - N/A   Mostly Cloudy
1:55 PM 89.4 °F 96.8 °F 72.1 °F 57% 30.13 in 10.0 mi ESE 5.8 mph - N/A   Scattered Clouds
2:15 PM 89.1 °F 96.0 °F 71.8 °F 57% 30.13 in 10.0 mi East 6.9 mph - N/A   Scattered Clouds
2:35 PM 88.5 °F 94.9 °F 71.8 °F 57% 30.12 in 10.0 mi SE 8.1 mph - N/A   Mostly Cloudy
2:55 PM 87.3 °F 94.9 °F 73.2 °F 63% 30.11 in 10.0 mi SSE 8.1 mph - N/A   Scattered Clouds
3:15 PM 88.3 °F 98.4 °F 75.0 °F 65% 30.11 in 10.0 mi South 10.4 mph - N/A   Clear
3:35 PM 88.7 °F 95.7 °F 72.1 °F 58% 30.11 in 10.0 mi South 8.1 mph - N/A   Clear
3:55 PM 89.1 °F 95.0 °F 70.9 °F 55% 30.10 in 10.0 mi SE 6.9 mph - N/A   Scattered Clouds
4:15 PM 89.2 °F 96.4 °F 72.3 °F 57% 30.09 in 10.0 mi ESE 6.9 mph - N/A   Scattered Clouds
4:35 PM 88.5 °F 94.9 °F 71.6 °F 57% 30.09 in 10.0 mi SE 5.8 mph - N/A Thunderstorm Scattered Clouds
4:55 PM 85.5 °F 89.1 °F 68.5 °F 57% 30.09 in 10.0 mi ENE 15.0 mph 19.6 mph N/A Thunderstorm Thunderstorm
5:15 PM 84.0 °F 86.3 °F 66.4 °F 55% 30.09 in 10.0 mi ESE 8.1 mph - N/A Rain , Thunderstorm Light Thunderstorms and Rain
5:35 PM 85.6 °F 88.5 °F 67.1 °F 54% 30.08 in 10.0 mi East 8.1 mph - N/A   Scattered Clouds
5:55 PM 83.5 °F 86.9 °F 68.9 °F 61% 30.08 in 10.0 mi SSE 6.9 mph - N/A   Scattered Clouds
6:15 PM 84.2 °F 90.6 °F 72.9 °F 69% 30.08 in 10.0 mi SE 4.6 mph - N/A   Scattered Clouds
6:35 PM 84.4 °F 92.0 °F 74.3 °F 72% 30.09 in 10.0 mi SSE 5.8 mph - N/A   Clear
6:55 PM 83.7 °F 91.3 °F 74.8 °F 75% 30.09 in 10.0 mi SSE 3.5 mph - N/A   Clear
7:15 PM 83.3 °F 90.8 °F 74.8 °F 76% 30.09 in 10.0 mi South 4.6 mph - N/A   Clear
7:35 PM 82.4 °F 89.5 °F 75.2 °F 79% 30.09 in 10.0 mi South 3.5 mph - N/A   Scattered Clouds
7:55 PM 81.3 °F 87.4 °F 75.0 °F 81% 30.10 in 10.0 mi SSE 4.6 mph - N/A   Clear
8:15 PM 80.1 °F 84.8 °F 74.5 °F 83% 30.10 in 10.0 mi South 4.6 mph - N/A   Clear
8:35 PM 79.7 °F - 74.3 °F 83% 30.11 in 10.0 mi South 4.6 mph - N/A   Clear
8:55 PM 78.8 °F - 73.6 °F 84% 30.11 in 10.0 mi SSE 3.5 mph - N/A   Clear
9:15 PM 77.9 °F - 73.4 °F 86% 30.12 in 10.0 mi Calm Calm - N/A   Clear
9:35 PM 78.6 °F - 73.4 °F 84% 30.12 in 10.0 mi Calm Calm - N/A   Clear
9:55 PM 76.6 °F - 73.8 °F 91% 30.13 in 10.0 mi Calm Calm - N/A   Scattered Clouds
10:15 PM 78.8 °F - 73.4 °F 83% 30.13 in 10.0 mi SSE 3.5 mph - N/A   Scattered Clouds
10:35 PM 77.2 °F - 73.2 °F 88% 30.14 in 10.0 mi Calm Calm - N/A   Scattered Clouds
10:55 PM 77.2 °F - 71.1 °F 81% 30.15 in 10.0 mi East 12.7 mph - N/A   Mostly Cloudy
11:15 PM 76.6 °F - 68.5 °F 76% 30.14 in 10.0 mi ESE 3.5 mph - N/A Thunderstorm Scattered Clouds
11:35 PM 75.6 °F - 68.0 °F 77% 30.13 in 10.0 mi ENE 4.6 mph - N/A   Clear
11:55 PM 74.1 °F - 67.6 °F 80% 30.14 in 10.0 mi Calm Calm - N/A   Clear